Location: Burla
(50.9568°N, 10.4983°E)
Time: 11:00:24
(UTC+00:00)

Gblst 52 Del rocket - Pass Details

Date: 18 January 2026
Orbit: 805 x 1364 km, 51.5° (Epoch: 16 February)

Event Time Altitude Azimuth Distance (km) Brightness Sun altitude
Exits shadow 05:04:20 36° 261° (W) 1,265 4.6 -19.5°
Maximum altitude 05:06:09 50° 210° (SSW) 1,018 4.4 -19.2°
Drops below altitude 10° 05:11:29 10° 136° (SE) 2,417 7.4 -18.4°
Sets 05:14:04 0° 131° (SE) 3,388 8.4 -18.0°
